Cloud_Cover
74 83 7 2 2 4 3 5 27 100 100 100 100 100 100 100 87 66 92 98 12 4 4 9 6 5 5 0 28 4 9 1 0 1 5 5 22 81 5 15 75 5 5
38 97 71 89 6 0 0 2 8 29 98 100 100 98 100 100 100 97 100 99 100 76 73 5 0 3 42 5 5 2 0 0 0 0 3 8 5 17 5 5 10 6 5
39 57 57 100 99 42 0 4 6 53 26 32 77 87 91 78 100 100 100 100 92 60 100 100 50 16 8 4 8 5 32 84 90 73 0 1 8 33 5 15 32 5 5
100 98 90 36 83 97 79 0 5 24 15 77 84 50 89 100 96 92 38 96 100 95 99 100 95 90 84 50 28 20 52 32 84 21 45 16 17 99 5 7 1 0 5
100 92 100 100 18 96 29 12 2 51 38 5 56 75 25 100 100 100 92 89 72 100 61 100 43 58 95 7 5 9 8 15 37 69 62 18 8 0 0 0 3 5 4
94 100 100 100 100 98 34 39 19 18 15 43 6 49 60 97 71 95 96 100 100 97 78 100 69 98 89 13 53 5 44 5 4 5 68 9 5 6 3 1 0 3 5
57 83 96 91 70 89 64 99 98 66 79 77 51 75 60 79 77 47 46 4 25 11 22 100 100 100 36 22 100 23 67 46 40 8 16 69 12 100 100 73 17 9 8
84 96 93 100 100 100 100 100 100 98 100 97 100 93 5 21 29 50 19 43 90 80 72 76 100 91 31 5 0 29 58 35 89 23 51 34 33 13 6 28 9 27 28
100 100 100 100 100 100 100 100 100 100 100 100 100 99 93 76 22 53 50 88 56 49 5 5 7 14 30 11 5 4 2 38 86 67 99 2 0 0 24 6 74 100 100
100 100 100 100 100 100 88 100 100 100 100 100 100 100 100 95 86 81 69 53 62 90 100 29 5 5 5 3 1 5 5 0 3 38 5 44 37 91 79 67 94 36 8
100 100 100 100 100 100 100 100 92 100 100 100 100 100 100 100 100 99 94 94 97 85 68 98 89 26 19 5 51 4 1 18 2 1 6 63 61 95 100 90 51 24 5
100 100 100 100 100 100 100 100 93 100 100 100 100 100 100 98 89 66 90 100 91 100 97 99 99 95 88 74 65 49 13 42 6 9 6 88 97 79 37 98 83 59 8
100 100 100 100 100 100 100 100 99 100 100 85 100 100 100 97 83 98 100 95 100 100 100 100 100 100 100 99 91 98 71 89 97 63 16 7 5 5 22 5 8 96 81
100 100 100 100 100 100 100 100 99 98 92 100 100 100 90 100 100 100 97 99 100 100 100 100 94 100 100 100 100 100 84 100 98 93 42 92 100 55 40 42 73 53 40
100 100 100 81 88 100 100 100 100 83 98 100 100 99 100 100 100 100 97 100 90 40 68 47 100 100 100 100 100 100 100 100 100 97 97 75 74 44 64 5 26 33 17
100 92 41 82 40 76 27 100 100 100 100 100 100 100 99 80 99 99 100 100 100 100 92 60 100 99 93 100 100 100 100 100 100 100 100 100 100 100 98 76 36 99 100
100 50 70 5 5 5 5 5 2 7 94 100 100 100 100 100 100 83 64 21 100 100 100 100 100 100 100 100 100 100 100 100 100 100 100 100 100 100 100 100 100 61 100
78 78 81 70 5 16 57 5 5 5 24 100 100 93 100 100 100 100 100 84 98 100 93 100 100 100 47 14 41 61 82 100 100 100 97 100 100 100 100 100 100 100 97
100 100 100 93 99 71 53 11 5 5 17 91 96 78 31 43 100 100 100 100 100 100 100 100 100 82 19 9 90 84 71 33 43 49 98 100 100 100 100 100 100 100 100
98 100 100 100 100 98 89 76 98 94 76 12 12 25 68 5 5 28 63 14 41 70 91 100 100 100 100 57 5 54 93 100 100 100 44 50 100 75 73 100 100 100 100
100 100 100 100 100 100 100 100 100 100 92 100 100 96 76 41 59 14 1 0 0 0 0 0 0 0 0 5 11 0 3 2 0 5 85 82 43 86 100 100 100 100 100
100 100 100 100 100 100 100 100 100 100 100 86 34 54 82 89 90 86 6 5 0 0 0 0 0 0 0 0 4 4 5 5 5 0 4 5 8 10 13 33 25 19 40
100 100 100 100 100 100 100 100 100 100 100 100 100 99 100 90 54 35 5 5 30 6 5 5 4 4 0 0 0 0 3 3 5 21 46 72 92 80 56 61 91 98 97
100 100 100 100 100 100 100 100 100 100 100 100 100 100 100 100 100 99 61 51 5 5 5 5 5 5 5 5 5 8 22 12 13 60 100 99 100 100 100 100 100 100 98
100 100 100 100 100 100 100 100 100 100 100 100 100 100 100 100 100 100 100 83 87 94 16 5 5 5 5 5 5 16 46 4 6 34 75 100 100 100 100 100 100 100 100
100 100 100 100 100 100 100 100 100 100 96 100 100 100 93 98 100 100 100 100 100 99 50 22 24 21 14 5 8 58 0 0 2 11 27 49 97 100 100 100 100 100 100